[[{"header":{"parameterUnit":"m.s-1","parameterCategory":1,"la1":30.2991,"la2":30.254,"lo1":-89.0895,"lo2":-89.0444,"dy":0.0017,"dx":0.0017,"nx":28,"ny":28,"refTime":"2025-07-11T21:00:00:Z","depth":0,"parameterNumber":2,"parameterNumberName":"U-component_of_WINDS"},"data":[0,0,0,0,0,0,0,0,0,0,0,0,0,0,0,0,0,0,0,0,0,0,0,0,0,0,0,0,0,0,0,0,0,0,0,0,0,0,0,0,0,0,0,0,0,0,0,0,0,0,0,0,0,0,0,0,0,0,1.4183,1.4185,0,1.4399,1.4401,1.4404,1.449,1.4489,1.4489,1.4488,1.4713,1.4719,1.4726,0,0,0,0,0,0,0,0,0,0,0,0,0,1.3848,1.3853,1.4183,1.4186,1.4188,1.4398,1.4401,1.4404,1.449,1.4489,1.4489,1.4488,1.4711,1.4719,1.4726,0,0,0,0,0,0,0,0,0,0,0,0,0,1.4021,1.3855,1.4182,1.4256,1.4265,1.4398,1.4402,1.4405,1.449,1.4489,1.4488,1.4488,1.4708,1.4718,1.4727,1.4804,0,0,1.4757,1.4761,0,0,0,0,0,0,0,0,1.4011,1.4034,1.4243,1.4251,1.4261,1.4417,1.4366,1.4539,1.449,1.4405,1.4488,1.4487,1.4615,1.4633,1.4675,1.4815,1.4824,1.4758,1.4764,1.4768,1.4771,0,0,0,0,0,0,0,1.3999,1.4025,1.4268,1.4246,1.4257,1.428,1.4303,1.4399,1.4512,1.4412,1.4419,1.4443,1.462,1.4665,1.4681,1.4828,1.4758,1.4767,1.4773,1.4776,1.504,1.5041,0,0,0,0,0,0,1.3975,1.4014,1.4262,1.4275,1.4132,1.4286,1.4313,1.4368,1.4511,1.4532,1.4444,1.4446,1.4649,1.467,1.4689,1.4788,1.4768,1.4777,1.4783,1.5039,1.5041,1.5042,0,0,0,0,0,0,1.3967,1.3996,1.4253,1.4147,1.4181,1.4293,1.4354,1.4372,1.4418,1.4535,1.4556,1.4469,1.4649,1.4676,1.4774,1.4797,1.4782,1.4791,1.5038,1.504,1.5041,1.4986,0,0,0,0,0,0,1.3957,1.3993,1.4022,1.4146,1.4186,1.4333,1.4355,1.4377,1.4434,1.4439,1.4564,1.4584,1.4651,1.4759,1.4784,1.481,1.4798,1.5036,1.5039,1.5041,1.4986,1.4985,1.4985,0,0,0,0,0,1.3945,1.3999,1.4023,1.4053,1.4225,1.4334,1.4357,1.4432,1.4435,1.4466,1.4541,1.458,1.479,1.4769,1.4797,1.4827,1.5035,1.5038,1.5041,1.4986,1.4986,1.4985,0,0,0,0,0,0,1.3876,1.4016,1.4045,1.4141,1.4225,1.4349,1.439,1.4429,1.4515,1.4516,1.4607,1.4634,1.4725,1.4786,1.476,1.4908,1.4916,1.4924,1.4865,1.4865,1.4864,1.4848,1.4806,0,0,0,0,0,1.3871,1.3947,1.4067,1.4139,1.418,1.4277,1.4328,1.4378,1.4469,1.4506,1.4588,1.4676,1.4762,1.4817,1.4903,1.4995,1.5024,1.503,1.5029,1.5028,1.5034,1.5087,1.5091,1.5051,1.5051,1.505,0,0,1.3863,1.395,1.3992,1.4128,1.4199,1.4276,1.4307,1.4388,1.4446,1.4518,1.4616,1.468,1.4784,1.488,1.4926,1.4933,1.5051,1.5031,1.5029,1.5037,1.509,1.5094,1.5097,1.5052,1.5052,1.5052,0,0,1.3889,1.3961,1.403,1.41,1.4207,1.4271,1.4287,1.4406,1.445,1.4549,1.4605,1.4677,1.4823,1.4895,1.495,1.5001,1.504,1.5027,1.5024,1.5074,1.5078,1.5081,1.5099,1.5104,1.5033,1.5033,1.5033,0,1.3866,1.3983,1.406,1.4138,1.4196,1.4263,1.4333,1.4398,1.4528,1.4567,1.4572,1.4757,1.4832,1.4945,1.4957,1.5,1.5022,1.5013,1.5071,1.5075,1.5079,1.5097,1.5104,1.503,1.5031,1.5031,1.5031,0,1.395,1.4031,1.4073,1.4195,1.4258,1.4331,1.442,1.4475,1.4519,1.4583,1.4683,1.4775,1.488,1.4911,1.4956,1.5031,1.5032,1.5053,1.5063,1.5079,1.5098,1.5105,1.5027,1.5028,1.5029,1.5029,0,0,1.3938,1.41,1.4115,1.4171,1.4293,1.4357,1.4434,1.4535,1.458,1.4667,1.4734,1.4856,1.4876,1.4939,1.4992,1.5037,1.5071,1.5053,1.5056,1.5052,1.5159,1.5142,1.5149,1.5097,1.5099,1.51,1.515,0,1.3979,1.4118,1.4189,1.4298,1.4373,1.4438,1.4505,1.4587,1.4649,1.4723,1.4792,1.4876,1.4896,1.4935,1.4982,1.5056,1.5093,1.5054,1.5161,1.5164,1.5132,1.5159,1.5141,1.5184,1.5158,1.5159,1.516,0,1.4046,1.4131,1.4246,1.4359,1.4393,1.4452,1.455,1.462,1.4715,1.4757,1.4826,1.4879,1.4962,1.4965,1.5082,1.5054,1.5102,1.5145,1.5149,1.5162,1.5163,1.5172,1.52,1.5205,1.5172,1.5171,1.517,0,1.4025,1.4168,1.4256,1.4302,1.4436,1.4475,1.4533,1.4627,1.4683,1.477,1.4807,1.4903,1.4955,1.5028,1.5105,1.51,1.5214,1.5224,1.5252,1.525,1.5273,1.5271,1.5308,1.5304,1.5304,1.5303,1.5303,0,1.4064,1.4132,1.4248,1.4302,1.438,1.4462,1.4537,1.46,1.4683,1.4751,1.4814,1.4876,1.4973,1.5048,1.5109,1.5197,1.522,1.5257,1.5272,1.5251,1.5246,1.5284,1.5283,1.5305,1.5305,1.5305,1.5304,0,1.4054,1.4134,1.4234,1.4352,1.4383,1.4436,1.4537,1.4592,1.4657,1.4742,1.4766,1.4868,1.4959,1.5042,1.5165,1.5205,1.5294,1.5314,1.5261,1.527,1.5293,1.5289,1.5356,1.5369,1.5355,1.5355,1.5355,0,1.4073,1.4127,1.425,1.4299,1.4356,1.4434,1.4491,1.4574,1.4631,1.4743,1.4785,1.488,1.4961,1.5103,1.5189,1.5282,1.5305,1.5321,1.5319,1.5296,1.5305,1.53,1.5306,1.532,1.532,1.532,1.532,0,1.4099,1.4136,1.4215,1.4309,1.4375,1.4453,1.4533,1.457,1.4667,1.4729,1.4822,1.4884,1.5008,1.5102,1.5204,1.5265,1.5309,1.5319,1.5331,1.531,1.5277,1.5295,1.5258,1.5318,1.5318,1.5318,1.5318,1.5318,1.4104,1.4155,1.4249,1.4336,1.4404,1.4477,1.4534,1.4605,1.4684,1.479,1.4834,1.4928,1.5022,1.5165,1.5225,1.5301,1.531,1.5326,1.5331,1.5333,1.5329,1.5265,1.532,1.532,1.532,1.532,1.532,0,1.4133,1.4196,1.4275,1.4384,1.4452,1.4486,1.4576,1.4631,1.4713,1.4796,1.4873,1.498,1.5072,1.5163,1.526,1.5303,1.5325,1.5326,1.5323,1.5337,1.5316,1.5296,1.5306,1.5306,1.5306,1.5306,1.5306,1.5306,1.4156,1.4243,1.4291,1.4412,1.4476,1.4568,1.4616,1.4684,1.4751,1.4867,1.4943,1.5001,1.5088,1.5191,1.5277,1.5302,1.5334,1.5329,1.5359,1.5338,1.5338,1.5339,1.532,1.5335,1.5335,1.5374,1.5374,1.5374]},{"header":{"parameterUnit":"m.s-1","parameterCategory":1,"la1":30.2991,"la2":30.254,"lo1":-89.0895,"lo2":-89.0444,"dy":0.0017,"dx":0.0017,"nx":28,"ny":28,"refTime":"2025-07-11T21:00:00:Z","depth":0,"parameterNumber":3,"parameterNumberName":"V-component_of_WINDS"},"data":[0,0,0,0,0,0,0,0,0,0,0,0,0,0,0,0,0,0,0,0,0,0,0,0,0,0,0,0,0,0,0,0,0,0,0,0,0,0,0,0,0,0,0,0,0,0,0,0,0,0,0,0,0,0,0,0,0,0,4.1294,4.1293,0,4.1224,4.1223,4.1223,4.1199,4.1199,4.12,4.12,4.1119,4.1117,4.1114,0,0,0,0,0,0,0,0,0,0,0,0,0,4.1399,4.1397,4.1294,4.1293,4.1292,4.1224,4.1223,4.1222,4.1199,4.1199,4.12,4.12,4.112,4.1117,4.1114,0,0,0,0,0,0,0,0,0,0,0,0,0,4.1343,4.1396,4.1294,4.1273,4.127,4.1224,4.1223,4.1222,4.1199,4.1199,4.12,4.12,4.1121,4.1117,4.1114,4.1082,0,0,4.1102,4.1101,0,0,0,0,0,0,0,0,4.1346,4.1339,4.1277,4.1274,4.1271,4.1221,4.1231,4.1175,4.1199,4.1226,4.12,4.12,4.1152,4.1146,4.1131,4.1078,4.1074,4.1102,4.11,4.1098,4.1097,0,0,0,0,0,0,0,4.135,4.1342,4.1266,4.1276,4.1272,4.1264,4.1256,4.122,4.1187,4.1223,4.1221,4.1214,4.115,4.1135,4.1129,4.1073,4.1102,4.1099,4.1097,4.1095,4.0988,4.0988,0,0,0,0,0,0,4.1359,4.1346,4.1268,4.1264,4.1311,4.1261,4.1253,4.1236,4.1187,4.118,4.1214,4.1213,4.1141,4.1134,4.1126,4.1085,4.1098,4.1095,4.1093,4.0989,4.0988,4.0988,0,0,0,0,0,0,4.1361,4.1352,4.1271,4.1304,4.1293,4.1259,4.124,4.1235,4.1219,4.118,4.1173,4.1205,4.1141,4.1131,4.1093,4.1082,4.1093,4.109,4.099,4.0989,4.0988,4.1003,0,0,0,0,0,0,4.1364,4.1353,4.1343,4.1304,4.1292,4.1242,4.124,4.1233,4.1214,4.1213,4.117,4.1163,4.1141,4.1099,4.109,4.1077,4.1087,4.0991,4.0989,4.0988,4.1003,4.1002,4.1002,0,0,0,0,0,4.1368,4.1348,4.1343,4.1333,4.1279,4.1242,4.1234,4.1212,4.1213,4.1201,4.1176,4.1164,4.1085,4.1095,4.1085,4.1071,4.0991,4.099,4.0988,4.1003,4.1002,4.1002,0,0,0,0,0,0,4.1383,4.1343,4.1336,4.1303,4.1277,4.1238,4.1222,4.1212,4.1181,4.1181,4.1152,4.1142,4.1106,4.1084,4.1097,4.1036,4.1037,4.1033,4.1052,4.1051,4.105,4.1056,4.1084,0,0,0,0,0,4.1383,4.1359,4.1324,4.1298,4.1286,4.1256,4.1239,4.1225,4.1194,4.1182,4.1154,4.1122,4.109,4.1069,4.1038,4.1,4.0989,4.0985,4.0984,4.0984,4.0981,4.0958,4.0955,4.0983,4.0983,4.0983,0,0,4.1382,4.1357,4.1343,4.1301,4.1278,4.1252,4.1247,4.1219,4.1198,4.1176,4.114,4.1118,4.108,4.1042,4.1024,4.1023,4.0971,4.0982,4.0982,4.0979,4.0956,4.0954,4.0951,4.0982,4.0982,4.0982,0,0,4.1366,4.1345,4.1322,4.13,4.1267,4.1247,4.1242,4.1205,4.119,4.1153,4.1137,4.111,4.1056,4.103,4.1009,4.0984,4.0971,4.0974,4.097,4.0948,4.0946,4.0944,4.0934,4.093,4.0971,4.0971,4.0971,0,4.1367,4.133,4.131,4.1283,4.1264,4.1247,4.1221,4.12,4.1157,4.1143,4.1143,4.1075,4.1049,4.1004,4.0998,4.0982,4.0973,4.0978,4.0948,4.0946,4.0944,4.0934,4.093,4.0971,4.0971,4.0971,4.0971,0,4.1333,4.1307,4.1291,4.1254,4.1233,4.1206,4.118,4.1161,4.1148,4.1128,4.1089,4.1057,4.1019,4.1007,4.0993,4.0959,4.096,4.0955,4.0955,4.0942,4.0932,4.0928,4.0972,4.0972,4.0972,4.0972,0,0,4.1324,4.1277,4.1271,4.1254,4.1216,4.1194,4.1166,4.1131,4.1115,4.1085,4.1059,4.1014,4.1009,4.0986,4.0969,4.095,4.093,4.0947,4.0945,4.0944,4.089,4.0894,4.089,4.0922,4.0921,4.0921,4.0893,0,4.1302,4.1255,4.1237,4.1197,4.1172,4.1155,4.113,4.1103,4.1083,4.1056,4.1032,4.1001,4.0997,4.0983,4.0964,4.0937,4.0919,4.0939,4.0895,4.0894,4.0905,4.0885,4.0889,4.0864,4.0889,4.0888,4.0888,0,4.1271,4.1245,4.1204,4.117,4.1158,4.1137,4.1103,4.1079,4.1046,4.1033,4.1008,4.0992,4.0958,4.0961,4.0914,4.0928,4.0909,4.0893,4.0891,4.0886,4.089,4.0878,4.0856,4.0852,4.0882,4.0882,4.0882,0,4.1268,4.1222,4.1191,4.1177,4.1136,4.1121,4.1103,4.1071,4.1052,4.1021,4.1007,4.0972,4.0953,4.0924,4.0898,4.0903,4.0853,4.0854,4.0838,4.0839,4.0828,4.0829,4.0802,4.0817,4.0817,4.0817,4.0817,0,4.1246,4.1221,4.119,4.1171,4.1142,4.1119,4.109,4.107,4.1042,4.1017,4.0999,4.0975,4.0942,4.0913,4.0892,4.0855,4.0846,4.0833,4.0827,4.0834,4.0836,4.082,4.0821,4.0816,4.0816,4.0817,4.0817,0,4.1237,4.1215,4.1181,4.1146,4.1136,4.1116,4.1084,4.1064,4.1044,4.1012,4.1003,4.097,4.0934,4.0906,4.0859,4.0845,4.0806,4.08,4.0818,4.0815,4.0801,4.0803,4.0763,4.0756,4.0777,4.0777,4.0776,0,4.1224,4.1205,4.1169,4.1152,4.1135,4.1108,4.1089,4.1065,4.1044,4.1006,4.099,4.0954,4.0924,4.0868,4.0838,4.0801,4.0794,4.0783,4.0788,4.0795,4.0792,4.0794,4.0791,4.0782,4.0782,4.0782,4.0781,0,4.1203,4.1194,4.1168,4.1138,4.1116,4.1091,4.1064,4.1051,4.1022,4.0999,4.0965,4.0942,4.0896,4.086,4.082,4.0798,4.0784,4.078,4.0775,4.0781,4.0792,4.0785,4.0816,4.0781,4.0781,4.0781,4.0781,4.0781,4.1191,4.1173,4.1145,4.1117,4.1095,4.1072,4.1051,4.1029,4.1001,4.0964,4.095,4.0914,4.0881,4.0827,4.0804,4.0774,4.0772,4.0764,4.0762,4.076,4.0761,4.0798,4.0766,4.0766,4.0766,4.0766,4.0766,0,4.1169,4.115,4.1125,4.109,4.1067,4.106,4.103,4.101,4.0981,4.0952,4.0924,4.0883,4.0848,4.0816,4.0778,4.076,4.0753,4.0751,4.0751,4.0746,4.0765,4.0773,4.0758,4.0758,4.0758,4.0758,4.0758,4.0758,4.1154,4.1124,4.1111,4.1069,4.1049,4.1017,4.1001,4.0977,4.0955,4.0912,4.0884,4.0864,4.0833,4.0793,4.076,4.0751,4.0737,4.0737,4.0726,4.0744,4.0745,4.0746,4.0754,4.0734,4.0734,4.071,4.0709,4.0709]}]]